Volver al catálogo

FENGYUN 1C DEB

ActivoSSO
NORAD 30127·DEBRIS·🇨🇳 China

Lanzado May 10, 1999 desde Taiyuan Satellite Launch Center

Loading…

Próximos Pases (próximas 24 horas)

TLE

ActualizadoSource: Space-Track

Época: Sep 14, 2026, 12:50 UTC

1 30127U 99025SG  26257.53536534  .00004137  00000-0  12330-2 0  9990
2 30127  98.1924 107.5987 0082160 329.2152  30.4233 14.41630075 12049

Sigue FENGYUN 1C DEB en tiempo real con AllMySat

Download on the App Store